Lid_Strength_Index
4 3 3 3 4 4 4 3 3 3 3 2 2 2 2 2 2 2 2 2 3 3 3 2 1 1 5 10 11 6 1 3 5 6 8 9 11 12 13 12 11 12 10 8 8 8 10
3 4 3 2 2 2 2 2 2 2 2 2 2 3 2 2 2 2 2 2 2 2 2 2 1 2 9 14 8 6 7 6 7 8 8 8 11 11 11 12 12 11 10 9 10 11 11
3 3 3 3 3 3 3 3 3 3 3 3 3 3 3 2 2 2 2 1 0 1 1 1 0 3 8 12 8 7 7 8 7 7 9 8 9 11 10 12 11 12 13 13 13 11 12
4 4 4 4 4 4 4 4 4 3 3 3 4 3 3 3 2 2 1 0 -1 -1 -1 -1 -1 4 12 8 9 8 7 8 7 6 8 8 8 10 10 10 13 14 14 16 12 12 12
4 4 4 4 4 4 4 4 4 3 3 3 3 3 3 3 2 2 1 -0 -1 -1 -1 -1 3 8 12 6 10 8 8 9 8 8 8 7 9 12 12 14 16 15 17 16 14 13 14
5 4 5 4 4 4 4 4 3 3 4 4 3 3 3 3 2 2 1 -0 -1 1 0 0 3 10 9 11 9 9 8 7 9 10 10 11 12 15 16 15 18 18 18 17 17 15 16
5 5 4 4 5 4 4 4 4 3 3 3 3 3 3 3 2 2 3 6 8 9 6 9 8 10 9 8 8 9 8 8 9 11 14 13 16 17 15 16 15 17 18 18 16 15 16
5 5 5 5 5 4 4 4 3 3 3 3 3 3 3 3 3 2 5 7 7 5 9 7 6 6 6 8 10 10 7 11 11 14 13 15 17 14 13 14 15 15 18 17 15 14 16
3 4 4 3 4 4 4 4 3 4 3 3 3 3 4 3 3 6 7 7 5 5 9 9 6 6 8 7 9 10 9 10 12 14 14 17 15 12 14 15 16 16 16 16 16 16 16
4 4 4 4 4 3 3 4 4 4 4 3 3 3 3 4 8 9 7 6 5 6 18 14 10 9 8 8 12 8 8 11 13 14 14 15 13 14 15 16 15 18 14 13 15 17 21
4 4 4 4 4 4 3 3 4 3 4 3 3 3 3 4 10 10 7 6 6 8 26 14 11 7 8 10 10 10 8 10 14 14 14 16 15 16 15 15 14 17 15 14 16 18 19
3 4 4 4 4 4 3 4 4 3 3 3 3 4 4 7 9 8 6 6 7 20 27 15 11 12 12 11 11 10 10 10 11 14 15 15 14 14 15 14 14 14 15 15 16 18 26
3 4 3 4 4 4 3 4 4 3 3 3 3 4 6 7 11 7 6 10 20 25 16 18 14 12 13 13 13 12 13 14 15 19 18 16 16 14 13 16 14 14 17 21 25 27 26
4 4 4 3 3 4 4 3 3 3 3 3 3 4 7 7 8 7 8 16 27 28 25 13 11 12 14 13 13 14 15 16 14 15 17 19 19 15 14 14 16 16 16 21 27 27 23
4 4 4 4 4 3 3 3 3 3 3 3 4 10 10 7 8 7 12 24 25 22 13 12 13 19 19 14 14 15 16 16 14 14 17 18 17 15 14 13 13 16 18 15 21 27 26
3 4 4 4 4 4 4 4 4 4 4 4 11 12 11 8 8 9 17 19 19 12 12 12 17 18 23 19 15 16 16 14 14 12 12 14 18 14 14 13 14 16 14 18 19 26 29
3 3 4 4 4 4 4 3 3 3 4 5 11 15 10 8 8 14 22 22 13 12 12 13 13 15 14 16 14 17 15 13 13 13 12 13 14 16 14 16 17 17 20 18 16 19 26
3 3 4 3 3 3 3 3 3 3 3 7 13 20 10 10 17 25 24 14 12 13 13 13 12 13 14 15 19 15 15 14 13 13 15 12 13 18 17 13 13 14 16 17 19 22 21
3 3 3 3 3 3 3 3 3 3 4 9 17 16 10 11 25 26 20 15 14 14 14 14 14 14 14 19 19 16 15 11 13 14 16 12 17 23 17 16 15 16 15 15 17 17 19
3 2 3 3 3 3 3 3 3 3 4 9 16 21 18 16 16 18 22 20 17 13 14 13 13 13 16 21 16 22 17 14 13 14 10 10 14 20 18 16 16 17 15 15 16 19 21
2 2 3 3 3 3 3 3 3 3 4 8 13 18 19 23 21 17 16 16 16 19 14 12 15 15 17 25 23 23 19 17 15 13 13 14 20 16 17 14 15 16 16 14 16 16 18
3 3 2 3 3 3 3 3 3 3 3 8 15 15 14 20 16 16 16 18 16 16 16 15 17 15 16 22 19 24 22 21 18 17 17 13 20 18 19 15 13 14 14 16 14 14 16
3 3 3 3 3 3 3 3 3 2 3 8 8 9 12 13 15 17 16 16 15 13 13 12 13 16 15 13 14 14 14 14 16 20 21 19 18 19 23 16 14 17 14 13 16 17 17
3 3 3 3 3 3 3 3 3 2 3 6 7 9 12 16 16 15 14 13 13 12 13 10 9 12 10 8 9 11 13 13 15 16 14 19 19 17 22 20 23 15 12 11 12 12 12
3 3 3 3 3 3 3 3 3 3 2 5 5 7 9 13 12 13 12 11 9 8 9 8 7 6 6 8 13 21 22 21 19 13 15 15 17 20 21 20 17 15 14 14 15 13 11
4 3 3 3 3 3 3 3 2 2 2 4 4 3 6 10 13 8 9 8 11 11 14 10 6 6 6 10 17 20 25 25 23 19 11 12 14 16 18 20 21 16 12 11 11 16 10
3 3 3 3 3 2 2 2 2 1 1 2 4 2 5 9 7 6 9 9 7 8 12 15 13 9 7 14 16 23 21 16 21 19 16 15 14 17 18 19 16 12 12 12 16 15 13
3 3 3 2 3 2 2 2 1 1 0 1 4 2 5 7 6 5 5 7 8 8 12 13 11 12 15 17 20 21 23 17 17 14 15 15 15 16 16 17 20 12 11 14 14 12 12
3 3 2 3 2 2 2 1 1 0 -0 -1 3 2 2 4 6 5 3 3 3 5 7 8 10 14 9 19 20 20 22 21 19 22 10 15 13 16 14 14 12 12 13 11 12 13 12